DELTA 1 DEB, 21331

Orbit data source: Space-Track

DELTA 1 DEB, 21331 is space debris in SSO originally from a launch on Thu, 12 Jun 1975 UTC launched from the Air Force Western Test Range (AFWTR). Debris objects in space refer to the collection of defunct objects orbiting the Earth. Examples of debris include non-operational satellites, rocket bodies, and fragments generated from explosions, collisions, or faulty payload assembly.

Loading next visibility...
Identifier
21331, 1975-052AZ
Orbit
SSO
Country
Flag of USUS
Related business
Manufacturer
Unknown
Mission
Spacecraft
Bus & Motor
Unknown
Mass
Unknown
Launch date (UTC)
1975-06-12 (51 years ago)
Launch vehicle
Unknown
Launch site
Air Force Western Test Range (AFWTR)
Object type
Payload
Rocket body
Debris
Shape & HBR
Unknown shape, 0.1 m
Radar Cross Section
Medium (>0.1 m² and <1 m²)

Expand to show TLE details & history
Last TLE update: 1 day ago

TLE from 1 day ago
0 DELTA 1 DEB
1 21331U 75052AZ  26168.14671962  .00000009  00000-0  93422-4 0  9991
2 21331  99.6554  13.7038 0027037  97.3574  27.2630 13.39765966716870
Epoch: 2026-06-17T03:31Z
TLE epoch observation values (Epoch: 2026-06-17T03:31:16.575Z)
Latitude
54.18213°
Longitude
-110.95988°
Altitude
1,100.984 km
Speed
7.316 km/s
True Right ascension
13h 49m 04s
True Declination
54° 01' 35"
Sunlit
Object was in daylight at epoch
Visualization orbit readout
Latitude
Unknown
Longitude
Unknown
Altitude
Unknown
Speed
Unknown
Apparent Right ascension
Unknown
Apparent Declination
Unknown
Sunlit
N/A
Visualization observer readout
Local Sidereal Time
21:52:28
Azimuth
Unknown
Elevation
Unknown
Doppler factor
Unknown
Orbital elements
Apogee altitude
1,127.703 km
Perigee altitude
1,087.225 km
Semi-major axis
7,485.601 km
Eccentricity
0.0027
Inclination
99.6554°
RAAN
13.7038°
Arg. of periapsis
97.3574°
True anomaly
27.40535°
Mean anomaly
27.263°
Eccentric anomaly
27.33413°
Mean motion
3.35122 °/min
Orbital period
107.42 mins
BSTAR
0.000093422
Loading maneuver chart data...
Computing Atmospheric mass density...

Documentation

Showing up to 5 results
|